Anoka County, MN

11:49 PM CST on February 20, 2018 (GMT -0600)
Anoka County / Blaine Airport

Weather History for KANE - March, 2014

Change the Weather History Date:

Saturday, March 15, 2014

  Actual Average Record
Temperature  
Mean Temperature 24 °F -  
Max Temperature 28 °F 35 °F 69 °F (2015)
Min Temperature 19 °F 19 °F -4 °F (1997)
Degree Days  
Heating Degree Days 42    
Moisture  
Dew Point 14 °F    
Average Humidity 70    
Maximum Humidity 86    
Minimum Humidity 43    
Precipitation  
Precipitation 0.00 in - - ()
Sea Level Pressure  
Sea Level Pressure 30.13 in    
Wind  
Wind Speed 7 mph (NNW)    
Max Wind Speed 12 mph    
Max Gust Speed -    
Visibility 10 miles    
Events      
Averages and records for this station are not official NWS values.
T = Trace of Precipitation, MM = Missing Value Source: NWS Daily Summary

Daily Weather History Graph

Daily Weather History Graph

Search for Another Location

Airport or City:

Trip Planner

Search our weather history database for the weather conditions in past years. The results will help you decide how hot, cold, wet, or windy it might be!

Date:

Astronomy

Mar. 15, 2014 Rise Set
Actual Time 7:25 AM CDT 7:18 PM CDT
Civil Twilight 6:55 AM CDT 7:48 PM CDT
Nautical Twilight 6:21 AM CDT 8:22 PM CDT
Astronomical Twilight 5:46 AM CDT 8:57 PM CDT
Moon 6:38 PM CDT (3/15) 6:39 AM CDT (3/15)
Length of Visible Light 12h 52m
Length of Day
11h 53m
Waxing Gibbous, 99% of the Moon is Illuminated
Mar 15
Waxing Gibbous
Mar 16
Full
Mar 23
Last Quarter
Mar 30
New
Apr 7
First Quarter

Hourly Weather History & Observations

Time (CDT) Temp. Windchill Dew Point Humidity Pressure Visibility Wind Dir Wind Speed Gust Speed Precip Events Conditions
12:15 AM 26.6 °F 17.5 °F 17.6 °F 69% 29.95 in 10.0 mi WNW 9.2 mph - N/A   Clear
12:36 AM 26.6 °F 19.1 °F 17.6 °F 69% 29.96 in 10.0 mi WNW 6.9 mph - N/A   Clear
12:55 AM 24.8 °F 16.9 °F 17.6 °F 74% 29.97 in 10.0 mi WNW 6.9 mph - N/A   Clear
1:15 AM 24.8 °F 19.1 °F 17.6 °F 74% 29.98 in 10.0 mi WNW 4.6 mph - N/A   Clear
1:36 AM 24.8 °F 16.9 °F 17.6 °F 74% 29.98 in 10.0 mi NW 6.9 mph - N/A   Clear
1:55 AM 24.8 °F 19.1 °F 17.6 °F 74% 29.99 in 10.0 mi NW 4.6 mph - N/A   Clear
2:15 AM 23.0 °F 15.8 °F 17.6 °F 80% 29.99 in 10.0 mi NNW 5.8 mph - N/A   Clear
2:36 AM 21.2 °F 14.9 °F 17.6 °F 86% 29.99 in 10.0 mi NNW 4.6 mph - N/A   Clear
2:55 AM 21.2 °F 13.6 °F 15.8 °F 80% 29.98 in 10.0 mi North 5.8 mph - N/A   Clear
3:15 AM 21.2 °F 13.6 °F 17.6 °F 86% 29.98 in 10.0 mi NW 5.8 mph - N/A   Clear
3:36 AM 21.2 °F 13.6 °F 17.6 °F 86% 29.99 in 10.0 mi NW 5.8 mph - N/A   Clear
3:55 AM 21.2 °F 16.4 °F 15.8 °F 80% 29.99 in 10.0 mi NNW 3.5 mph - N/A   Clear
4:15 AM 21.2 °F 14.9 °F 15.8 °F 80% 30.00 in 10.0 mi NW 4.6 mph - N/A   Clear
4:35 AM 21.2 °F 13.6 °F 15.8 °F 80% 30.00 in 10.0 mi NNW 5.8 mph - N/A   Clear
4:55 AM 21.2 °F 14.9 °F 15.8 °F 80% 30.02 in 10.0 mi NW 4.6 mph - N/A   Clear
5:15 AM 19.4 °F 12.8 °F 15.8 °F 86% 30.03 in 10.0 mi NW 4.6 mph - N/A   Clear
5:35 AM 19.4 °F - 15.8 °F 86% 30.04 in 10.0 mi Calm Calm - N/A   Clear
5:55 AM 19.4 °F 12.8 °F 15.8 °F 86% 30.04 in 10.0 mi North 4.6 mph - N/A   Clear
6:15 AM 19.4 °F - 15.8 °F 86% 30.05 in 10.0 mi Calm Calm - N/A   Clear
6:35 AM 19.4 °F 14.3 °F 15.8 °F 86% 30.05 in 10.0 mi NNW 3.5 mph - N/A   Clear
6:55 AM 19.4 °F 14.3 °F 15.8 °F 86% 30.06 in 10.0 mi NNW 3.5 mph - N/A   Clear
7:45 AM 19.4 °F 14.3 °F 15.8 °F 86% 30.08 in 10.0 mi North 3.5 mph - N/A   Mostly Cloudy
8:45 AM 19.4 °F 11.5 °F 15.8 °F 86% 30.11 in 10.0 mi North 5.8 mph - N/A   Mostly Cloudy
9:50 AM 23.0 °F - 15.8 °F 74% 30.12 in 10.0 mi North - - N/A   Mostly Cloudy
10:45 AM 24.8 °F 16.1 °F 15.8 °F 69% 30.15 in 10.0 mi NE 8.1 mph - N/A   Mostly Cloudy
11:50 AM 28.4 °F 19.7 °F 17.6 °F 64% 30.17 in 10.0 mi NE 9.2 mph - N/A   Mostly Cloudy
12:45 PM 28.4 °F 19.1 °F 15.8 °F 59% 30.19 in 10.0 mi NNE 10.4 mph - N/A   Mostly Cloudy
1:45 PM 28.4 °F 19.7 °F 12.2 °F 51% 30.21 in 10.0 mi North 9.2 mph - N/A   Mostly Cloudy
8:50 PM 26.6 °F 17.5 °F 6.8 °F 43% 30.35 in 10.0 mi North 9.2 mph - N/A   Clear
9:15 PM 24.8 °F 16.9 °F 6.8 °F 46% 30.36 in 10.0 mi North 6.9 mph - N/A   Clear
9:35 PM 24.8 °F 16.1 °F 6.8 °F 46% 30.37 in 10.0 mi North 8.1 mph - N/A   Clear
9:56 PM 24.8 °F 14.0 °F 6.8 °F 46% 30.38 in 10.0 mi NNE 11.5 mph - N/A   Clear
10:15 PM 24.8 °F 14.0 °F 6.8 °F 46% 30.38 in 10.0 mi NNE 11.5 mph - N/A   Clear
10:35 PM 23.0 °F 12.4 °F 6.8 °F 50% 30.39 in 10.0 mi NNE 10.4 mph - N/A   Clear
10:56 PM 23.0 °F 12.4 °F 6.8 °F 50% 30.39 in 10.0 mi NNE 10.4 mph - N/A   Clear
11:15 PM 21.2 °F 11.7 °F 6.8 °F 54% 30.40 in 10.0 mi NNE 8.1 mph - N/A   Clear
11:35 PM 21.2 °F 12.6 °F 6.8 °F 54% 30.41 in 10.0 mi NNE 6.9 mph - N/A   Clear
11:56 PM 19.4 °F 11.5 °F 6.8 °F 58% 30.41 in 10.0 mi NNE 5.8 mph - N/A   Clear